This demonstration page uses our WeatherBlox Daily Observations layout. Learn more.

Hourly Observations for June 28, 2018

Temp ( °F °C ) Dew Point ( °F °C ) Humidity (%) Winds ( mph kmh ) Pressure ( in mb ) Visibility ( mi km ) Precip ( " mm )
12:15 am 00:15 Clear 76 24.7 76 24.5 99 99 E 10 17 29.77 1008 7 11.265408 0 0
12:35 am 00:35 Clear 76 24.5 76 24.3 99 99 E 9 15 29.77 1008 7 11.265408 0 0
12:55 am 00:55 Clear 76 24.2 75 24.1 99 99 E 9 15 29.77 1008 7 11.265408 0 0
1:15 am 01:15 Clear 75 24 75 24 100 100 E 8 13 29.74 1007 7 11.265408 0 0
1:35 am 01:35 Clear with Mist and Fog 75 23.7 75 23.7 100 100 E 9 15 29.74 1007 5 8.04672 0 0
1:55 am 01:55 Partly Cloudy with Mist and Fog 74 23.5 74 23.5 100 100 E 10 17 29.74 1007 5 8.04672 0 0
2:15 am 02:15 Mostly Cloudy with Mist and Fog 74 23.3 74 23.3 100 100 E 9 15 29.74 1007 5 8.04672 0 0
2:35 am 02:35 Cloudy with Mist and Fog 74 23.2 74 23.2 100 100 ESE 9 15 29.71 1006 5 8.04672 0 0
2:55 am 02:55 Cloudy with Mist and Fog 74 23.2 74 23.2 100 100 ESE 9 15 29.71 1006 3 4.828032 0 0
3:15 am 03:15 Cloudy with Mist and Fog 74 23.2 74 23.2 100 100 ESE 9 15 29.71 1006 2.5 4.02336 0 0
3:35 am 03:35 Cloudy with Mist and Fog 74 23.2 74 23.2 100 100 ESE 8 13 29.71 1006 1 1.609344 0 0
3:55 am 03:55 Cloudy with Mist and Fog 74 23.2 74 23.2 100 100 ESE 9 15 29.71 1006 0.75 1.207008 0 0
4:15 am 04:15 Cloudy with Fog 73 23 73 23 100 100 ESE 8 13 29.71 1006 0.5 0.804672 0 0
4:35 am 04:35 Cloudy with Fog 73 23 73 23 100 100 ESE 7 11 29.71 1006 0.5 0.804672 0 0
4:55 am 04:55 Cloudy with Fog 73 23 73 23 100 100 ESE 6 9 29.71 1006 0.5 0.804672 0 0
5:15 am 05:15 Cloudy with Fog 73 22.7 73 22.7 100 100 SE 7 11 29.71 1006 0.5 0.804672 0 0
5:35 am 05:35 Cloudy with Fog 73 22.6 73 22.6 100 100 SE 8 13 29.68 1005 0.5 0.804672 0 0
5:55 am 05:55 Cloudy with Fog 73 22.5 73 22.5 100 100 SE 8 13 29.68 1005 0.5 0.804672 0 0
6:15 am 06:15 Cloudy with Mist and Fog 72 22.2 72 22.2 100 100 SE 7 11 29.68 1005 0.75 1.207008 0 0
6:35 am 06:35 Cloudy with Fog 72 22 72 22 100 100 SE 5 7 29.68 1005 0.5 0.804672 0 0
6:55 am 06:55 Partly Cloudy with Mist and Fog 71 21.8 71 21.8 100 100 SSE 6 9 29.68 1005 3 4.828032 0 0
7:15 am 07:15 Sunny with Mist and Fog 72 22 72 22 100 100 SSE 7 11 29.68 1005 4 6.437376 0 0
7:35 am 07:35 Sunny 72 22.2 72 22.2 100 100 SSE 8 13 29.68 1005 7 11.265408 0 0
7:55 am 07:55 Sunny 73 22.7 73 22.7 100 100 SSE 9 15 29.68 1005 10 16.09344 0 0
8:15 am 08:15 Sunny 74 23.6 72 22.3 92 92 SSE 8 13 29.68 1005 10 16.09344 0 0
8:35 am 08:35 Sunny 75 24 71 21.8 88 88 SSE 8 13 29.68 1005 10 16.09344 0 0
8:55 am 08:55 Sunny 75 23.8 71 21.5 87 87 SSE 6 9 29.68 1005 10 16.09344 0 0
9:15 am 09:15 Sunny 77 25.1 70 21.3 80 80 SE 6 9 29.65 1004 10 16.09344 0 0
9:35 am 09:35 Sunny 78 25.8 71 21.5 77 77 SSE 8 13 29.65 1004 10 16.09344 0 0
9:55 am 09:55 Sunny 81 27 70 21.2 71 71 SSE 8 13 29.65 1004 10 16.09344 0 0
10:15 am 10:15 Sunny 82 27.8 70 21.2 67 67 SSE 8 13 29.65 1004 10 16.09344 0 0
10:35 am 10:35 Sunny 83 28.2 70 21 65 65 SSE 8 13 29.65 1004 10 16.09344 0 0
10:55 am 10:55 Sunny 84 28.9 71 21.5 64 64 SSE 7 11 29.62 1003 10 16.09344 0 0
11:15 am 11:15 Sunny 84 29.1 71 21.5 64 64 SE 8 13 29.62 1003 10 16.09344 0 0
11:35 am 11:35 Sunny 85 29.7 69 20.3 57 57 ESE 7 11 29.65 1004 10 16.09344 0 0
11:55 am 11:55 Sunny 87 30.3 69 20.4 55 55 ESE 7 11 29.65 1004 10 16.09344 0 0
12:15 pm 12:15 Sunny 88 31 68 20.1 52 52 E 6 9 29.65 1004 10 16.09344 0 0
12:35 pm 12:35 Sunny 88 31.2 65 18.6 47 47 SE 8 13 29.65 1004 10 16.09344 0 0
12:55 pm 12:55 Sunny 89 31.5 67 19.3 48 48 SE 13 20 29.62 1003 10 16.09344 0 0
1:15 pm 13:15 Sunny 90 32 69 20.3 50 50 ESE 13 20 29.62 1003 10 16.09344 0 0
1:35 pm 13:35 Sunny 89 31.9 69 20.3 50 50 ESE 14 22 29.62 1003 10 16.09344 0 0
1:55 pm 13:55 Sunny 90 32.3 70 21.2 52 52 ESE 14 22 29.59 1002 10 16.09344 0 0
2:15 pm 14:15 Sunny 90 32.4 72 22.1 55 55 ESE 15 24 29.59 1002 10 16.09344 0 0
2:35 pm 14:35 Sunny 92 33.4 72 22.4 52 52 ESE 16 26 29.59 1002 10 16.09344 0 0
2:55 pm 14:55 Sunny 93 33.7 73 23 54 54 ESE 15 24 29.56 1001 10 16.09344 0 0
3:15 pm 15:15 Sunny 94 34.2 76 24.2 56 56 SE 13 20 29.56 1001 10 16.09344 0 0
3:35 pm 15:35 Sunny 96 35.5 72 22.1 46 46 SSE 13 20 29.56 1001 10 16.09344 0 0
3:55 pm 15:55 Sunny 96 35.8 69 20.7 41 41 S 14 22 29.56 1001 10 16.09344 0 0
4:15 pm 16:15 Sunny 96 35.8 68 19.8 39 39 S 13 20 29.5 999 10 16.09344 0 0
4:35 pm 16:35 Sunny 97 36 65 18.5 36 36 S 15 24 29.5 999 10 16.09344 0 0
4:55 pm 16:55 Sunny 97 36.2 63 17.3 33 33 S 17 28 29.5 999 10 16.09344 0 0
5:15 pm 17:15 Sunny 97 36.3 62 16.8 31 31 S 15 24 29.5 999 10 16.09344 0 0
5:35 pm 17:35 Sunny 97 36 64 17.6 34 34 S 15 24 29.5 999 10 16.09344 0 0
5:55 pm 17:55 Sunny 95 35.2 66 18.7 38 38 S 10 17 29.53 1000 10 16.09344 0 0
6:15 pm 18:15 Sunny 94 34.5 69 20.4 44 44 S 10 17 29.53 1000 10 16.09344 0 0
6:35 pm 18:35 Sunny 93 34.1 65 18.4 39 39 S 13 20 29.53 1000 10 16.09344 0 0
6:55 pm 18:55 Sunny 94 34.2 62 16.6 35 35 S 16 26 29.53 1000 10 16.09344 0 0
7:15 pm 19:15 Sunny 93 33.7 62 16.7 36 36 S 13 20 29.53 1000 10 16.09344 0 0
7:35 pm 19:35 Sunny 92 33.3 62 16.4 36 36 S 16 26 29.53 1000 10 16.09344 0 0
7:55 pm 19:55 Sunny 90 32.4 61 16 37 37 S 13 20 29.53 1000 10 16.09344 0 0
8:15 pm 20:15 Sunny 88 31.1 62 16.5 41 41 S 10 17 29.56 1001 10 16.09344 0 0
8:35 pm 20:35 Sunny 87 30.4 62 16.6 43 43 S 10 17 29.56 1001 10 16.09344 0 0
8:55 pm 20:55 Sunny 85 29.6 62 16.5 45 45 S 13 20 29.56 1001 10 16.09344 0 0
9:15 pm 21:15 Clear 85 29.5 61 16.1 44 44 S 13 20 29.56 1001 10 16.09344 0 0
9:35 pm 21:35 Clear 84 28.8 61 16.3 47 47 S 9 15 29.56 1001 10 16.09344 0 0
9:55 pm 21:55 Clear 80 26.9 63 17.1 55 55 S 9 15 29.59 1002 10 16.09344 0 0
10:15 pm 22:15 Clear 80 26.4 64 17.5 58 58 SSE 9 15 29.59 1002 10 16.09344 0 0
10:35 pm 22:35 Clear 79 26 64 17.5 60 60 S 9 15 29.59 1002 10 16.09344 0 0
10:55 pm 22:55 Clear 79 26.3 64 17.7 59 59 S 13 20 29.59 1002 7 11.265408 0 0
11:15 pm 23:15 Clear 81 27.2 64 17.6 56 56 S 13 20 29.62 1003 10 16.09344 0 0
11:35 pm 23:35 Clear 81 27.1 64 17.5 56 56 S 14 22 29.62 1003 10 16.09344 0 0
11:55 pm 23:55 Clear 81 27.3 63 17.2 54 54 S 15 24 29.59 1002 10 16.09344 0 0

Powered by AerisWeather